Regional Weather Roundup
Issued by NWS Cleveland, OH

Home | Current Version | Previous Version | Text Only | Print | Product List | Glossary Off
Versions: 1 2 3 4 5 6 7 8 9 10 11 12 13 14 15 16 17 18 19 20 21 22 23 24 25 26 27 28 29 30 31 32 33 34 35 36 37 38 39 40 41 42 43 44 45 46 47 48 49 50

000
ASUS41 KCLE 030300
RWRCLE
OHIO REGIONAL WEATHER ROUNDUP
NATIONAL WEATHER SERVICE WILMINGTON, OH
1100 PM EDT THU JUL 02 2015

NOTE: "FAIR" INDICATES FEW OR NO CLOUDS BELOW 12,000 FEET WITH NO
SIGNIFICANT WEATHER AND/OR OBSTRUCTIONS TO VISIBILITY.

OHZ001>008-015>018-024>027-034-035-043-044-030400-
   NORTHWEST OHIO

CITY           SKY/WX    TMP DP  RH WIND       PRES   REMARKS
DEFIANCE       PTCLDY    63  55  75 E3        29.99R
FINDLAY        PTCLDY    64  55  72 NE6       29.98R
TOLEDO EXPRESS CLEAR     58  55  90 CALM      29.99R
TOLEDO EXEC    CLEAR     64  56  75 NE3       30.00R
LIMA           PTCLDY    62  55  77 E6        29.98R
$$

OHZ009>014-019>023-028>033-038-089-030400-
   NORTHEAST OHIO

CITY           SKY/WX    TMP DP  RH WIND       PRES   REMARKS
CLE-HOPKINS    PTCLDY    63  53  70 NE6       30.00S
CLE-LAKEFRONT  CLEAR     64  54  69 NE6       29.98R
CUY CO. ARPT   CLEAR     59  55  88 CALM      30.00R
LORAIN-ELYRIA  CLEAR     57  56  96 N3        30.00R
ASHTABULA      CLEAR     56  54  93 CALM      30.00S
AKRON-CANTON   PTCLDY    62  54  74 NE7       29.98S
WOOSTER        NOT AVBL
MANSFIELD      CLOUDY    61  53  75 N6        29.99R
YOUNGSTOWN     PTCLDY    59  53  80 NE6       29.99R
$$

OHZ042-051>053-060>062-070>072-077>081-030400-
  SOUTHWEST OHIO

CITY           SKY/WX    TMP DP  RH WIND       PRES   REMARKS
CINC-COVINGTON NOT AVBL
CINC-LUNKEN    CLOUDY    69  69 100 CALM      29.92R FOG
HAMILTON       CLOUDY    72  65  78 E9        29.93R
DAYTON         NOT AVBL
WRIGHT-PAT AFB MOCLDY    67  62  82 NE7       29.95R
DAYTON GENERAL CLOUDY    69  61  75 E8        29.93R
WILMINGTON     PTCLDY    65  62  90 NE6       29.93R
$$

OHZ036-037-039>041-045>050-054>059-063>069-073>076-082>088-030400-
  CENTRAL AND SOUTHEAST OHIO

CITY           SKY/WX    TMP DP  RH WIND       PRES   REMARKS
COLUMBUS       MOCLDY    64  61  90 CALM      29.94R
OSU AIRPORT    PTCLDY    65  60  84 N9        29.95R
BOLTON FIELD   NOT AVBL
RICKENBACK AFB NOT AVBL
NEWARK         PTCLDY    67  61  81 NE5       29.95R
MARION         PTCLDY    61  54  77 N6        29.98R
LANCASTER      MOCLDY    65  62  90 CALM      29.96R
ZANESVILLE     PTCLDY    64  61  90 CALM      29.95R FOG
NEW PHILLY     CLEAR     62  58  86 CALM      29.97R
$$


USA.gov is the U.S. government's official web portal to all federal, state and local government web resources and services.